[[{"header":{"parameterUnit":"m.s-1","parameterCategory":2,"la1":30.2991,"la2":30.254,"lo1":-89.0895,"lo2":-89.0444,"dy":0.0017,"dx":0.0017,"nx":28,"ny":28,"refTime":"2025-07-06T09:00:00:Z","depth":"0","parameterNumber":2,"parameterNumberName":"U-component_of_CURRENTS"},"data":[0,0,0,0,0,0,0,0,0,0,0,0,0,0,0,0,0,0,0,0,0,0,0,0,0,0,0,0,0,0,0,0,0,0,0,0,0,0,0,0,0,0,0,0,0,0,0,0,0,0,0,0,0,0,0,0,0,0,0.3204,0.3204,0,0.3202,0.3202,0.3202,0.3165,0.3164,0.3163,0.3162,0.3174,0.3175,0.3176,0,0,0,0,0,0,0,0,0,0,0,0,0,0.3165,0.3166,0.3204,0.3204,0.3204,0.3202,0.3202,0.3202,0.3165,0.3164,0.3163,0.3162,0.3174,0.3175,0.3176,0,0,0,0,0,0,0,0,0,0,0,0,0,0.3173,0.3166,0.3204,0.3186,0.3185,0.3202,0.3202,0.3202,0.3165,0.3164,0.3162,0.3161,0.3173,0.3175,0.3177,0.3212,0,0,0.3182,0.3182,0,0,0,0,0,0,0,0,0.3173,0.3175,0.3189,0.3188,0.3186,0.3183,0.3192,0.3206,0.3165,0.3171,0.3162,0.3161,0.318,0.3181,0.3182,0.3213,0.3213,0.3182,0.3183,0.3184,0.3184,0,0,0,0,0,0,0,0.3172,0.3175,0.3202,0.3189,0.3187,0.3175,0.3174,0.3195,0.3182,0.3171,0.3168,0.317,0.3179,0.318,0.3182,0.3214,0.3182,0.3183,0.3184,0.3185,0.3339,0.3342,0,0,0,0,0,0,0.3177,0.3174,0.3202,0.3202,0.3177,0.3177,0.3176,0.3184,0.3182,0.318,0.3171,0.3169,0.3178,0.318,0.3182,0.3266,0.3184,0.3185,0.3186,0.3336,0.334,0.3343,0,0,0,0,0,0,0.3177,0.318,0.3202,0.3188,0.319,0.3179,0.3188,0.3185,0.3188,0.3182,0.318,0.3177,0.3177,0.318,0.3217,0.3264,0.3186,0.3187,0.3332,0.3337,0.3341,0.3407,0,0,0,0,0,0,0.3176,0.318,0.3183,0.3189,0.3192,0.3221,0.3189,0.3186,0.3191,0.3188,0.3187,0.3186,0.3176,0.3215,0.3219,0.3265,0.3189,0.3328,0.3334,0.334,0.3401,0.3413,0.3424,0,0,0,0,0,0.3174,0.3188,0.3184,0.3187,0.3198,0.3222,0.3223,0.3208,0.3193,0.3204,0.321,0.3186,0.3255,0.3219,0.3222,0.327,0.3326,0.3333,0.3339,0.3396,0.3411,0.3423,0,0,0,0,0,0,0.3168,0.3186,0.3181,0.3198,0.3212,0.3216,0.3225,0.3218,0.323,0.3229,0.3217,0.3218,0.328,0.327,0.323,0.3337,0.3291,0.3299,0.3333,0.3347,0.3358,0.3385,0.319,0,0,0,0,0,0.3171,0.3189,0.3203,0.3217,0.3229,0.3229,0.3235,0.3232,0.3244,0.3247,0.325,0.327,0.3314,0.3322,0.3356,0.34,0.3418,0.344,0.3451,0.346,0.349,0.357,0.3591,0.3366,0.3366,0.3366,0,0,0.3173,0.3185,0.3194,0.3217,0.3227,0.3257,0.323,0.3252,0.328,0.325,0.3291,0.3315,0.3341,0.3401,0.3427,0.3391,0.3531,0.3469,0.3477,0.3501,0.3579,0.3601,0.362,0.3371,0.337,0.3369,0,0,0.319,0.32,0.3222,0.3244,0.3267,0.3278,0.3288,0.3306,0.3318,0.3362,0.3367,0.342,0.3455,0.3495,0.3517,0.3616,0.3601,0.3623,0.3686,0.3763,0.3782,0.3798,0.3827,0.3846,0.3613,0.3613,0.3613,0,0.319,0.3216,0.3232,0.3263,0.3285,0.3293,0.3326,0.3352,0.3378,0.3411,0.3386,0.3503,0.3511,0.3616,0.3648,0.3643,0.3667,0.3621,0.3776,0.3794,0.381,0.3836,0.3856,0.3617,0.3617,0.3616,0.3616,0,0.3224,0.3248,0.3269,0.3313,0.3344,0.3375,0.3416,0.3451,0.3467,0.3496,0.36,0.363,0.3699,0.3715,0.3707,0.3837,0.3809,0.379,0.3734,0.3836,0.3857,0.3877,0.3623,0.3622,0.362,0.3619,0,0,0.3205,0.3278,0.3281,0.3313,0.3372,0.3401,0.3472,0.3541,0.36,0.3646,0.3738,0.3821,0.3845,0.3877,0.3888,0.3947,0.4062,0.3915,0.3917,0.3932,0.4208,0.3984,0.3983,0.4067,0.4071,0.4075,0.4166,0,0.322,0.3284,0.3319,0.3385,0.3424,0.3473,0.3542,0.3612,0.3672,0.3766,0.3837,0.393,0.3905,0.3949,0.4014,0.4062,0.4122,0.4037,0.412,0.4122,0.39,0.4002,0.3796,0.3844,0.4185,0.4189,0.4191,0,0.3226,0.3273,0.3338,0.3431,0.3455,0.3498,0.3614,0.3682,0.382,0.3873,0.3985,0.4041,0.4165,0.4121,0.4262,0.4208,0.4229,0.4248,0.4252,0.404,0.3935,0.3805,0.3866,0.3831,0.4221,0.4219,0.4217,0,0.3193,0.328,0.3332,0.3362,0.3474,0.3517,0.3582,0.371,0.3802,0.3956,0.4034,0.4175,0.4245,0.4331,0.435,0.4331,0.4476,0.4447,0.4271,0.4254,0.4095,0.4054,0.4122,0.457,0.457,0.4569,0.4569,0,0.3187,0.3226,0.3318,0.3348,0.3428,0.351,0.3621,0.3704,0.3868,0.3978,0.409,0.4183,0.4304,0.4383,0.4411,0.4378,0.4524,0.4311,0.4279,0.4104,0.4066,0.4035,0.4016,0.4573,0.4572,0.4571,0.4571,0,0.3146,0.32,0.3269,0.3379,0.3412,0.3474,0.3636,0.3729,0.3866,0.4018,0.4077,0.4228,0.4282,0.4359,0.4467,0.4408,0.43,0.4383,0.4132,0.4067,0.3803,0.3793,0.3656,0.3567,0.4213,0.4208,0.4204,0,0.3133,0.3166,0.3276,0.3318,0.3364,0.3468,0.3547,0.371,0.3821,0.4015,0.4087,0.4184,0.4191,0.4234,0.4167,0.4151,0.4128,0.3952,0.3871,0.3776,0.3748,0.3628,0.3559,0.37,0.3692,0.3686,0.3681,0,0.3127,0.3162,0.3222,0.3296,0.3366,0.3455,0.3575,0.3652,0.3834,0.3912,0.3983,0.3993,0.3991,0.3838,0.3786,0.3762,0.3744,0.3811,0.3828,0.344,0.321,0.3111,0.3634,0.3624,0.3629,0.3634,0.3637,0.3639,0.3117,0.3144,0.3211,0.3268,0.334,0.3382,0.3377,0.3498,0.3569,0.3593,0.3739,0.3627,0.3616,0.3463,0.3419,0.324,0.3284,0.3168,0.3194,0.3106,0.2915,0.3258,0.3122,0.3125,0.3127,0.3129,0.3131,0,0.3091,0.3119,0.3179,0.3213,0.3221,0.3286,0.3347,0.329,0.3233,0.3287,0.3249,0.3143,0.2983,0.2983,0.284,0.2709,0.2619,0.2664,0.2547,0.2538,0.2965,0.2837,0.2492,0.2492,0.2492,0.2492,0.2492,0.2492,0.3077,0.3096,0.3103,0.3064,0.3071,0.2978,0.2937,0.2857,0.2838,0.2663,0.2558,0.2566,0.2699,0.2643,0.2503,0.2431,0.2348,0.213,0.2239,0.2649,0.2702,0.2752,0.2633,0.2251,0.2251,0.1697,0.1694,0.1691]},{"header":{"parameterUnit":"m.s-1","parameterCategory":2,"la1":30.2991,"la2":30.254,"lo1":-89.0895,"lo2":-89.0444,"dy":0.0017,"dx":0.0017,"nx":28,"ny":28,"refTime":"2025-07-06T09:00:00:Z","depth":"0","parameterNumber":3,"parameterNumberName":"V-component_of_CURRENTS"},"data":[0,0,0,0,0,0,0,0,0,0,0,0,0,0,0,0,0,0,0,0,0,0,0,0,0,0,0,0,0,0,0,0,0,0,0,0,0,0,0,0,0,0,0,0,0,0,0,0,0,0,0,0,0,0,0,0,0,0,0.0274,0.0273,0,0.0259,0.0258,0.0258,0.0237,0.0236,0.0236,0.0236,0.0221,0.0221,0.0221,0,0,0,0,0,0,0,0,0,0,0,0,0,0.0255,0.0255,0.0274,0.0273,0.0273,0.0259,0.0258,0.0258,0.0237,0.0236,0.0236,0.0236,0.0221,0.0221,0.0221,0,0,0,0,0,0,0,0,0,0,0,0,0,0.0254,0.0256,0.0274,0.0261,0.026,0.0259,0.0258,0.0258,0.0237,0.0236,0.0236,0.0235,0.0221,0.0221,0.0221,0.0231,0,0,0.0221,0.0221,0,0,0,0,0,0,0,0,0.0254,0.0254,0.0263,0.0262,0.026,0.0249,0.0246,0.0249,0.0237,0.0245,0.0236,0.0235,0.0231,0.023,0.0228,0.023,0.023,0.0221,0.0221,0.022,0.022,0,0,0,0,0,0,0,0.0254,0.0255,0.0268,0.0263,0.0261,0.0246,0.0246,0.0247,0.0241,0.0245,0.0243,0.0242,0.023,0.0228,0.0228,0.0229,0.0221,0.022,0.022,0.022,0.0267,0.0268,0,0,0,0,0,0,0.0258,0.0255,0.0268,0.0267,0.0256,0.0247,0.0246,0.0253,0.0241,0.0239,0.0242,0.0241,0.0229,0.0228,0.0227,0.0264,0.022,0.022,0.022,0.0266,0.0267,0.0269,0,0,0,0,0,0,0.0258,0.026,0.0269,0.026,0.026,0.0248,0.0256,0.0253,0.0249,0.0239,0.0237,0.0241,0.0228,0.0227,0.0238,0.0262,0.022,0.022,0.0264,0.0266,0.0268,0.0321,0,0,0,0,0,0,0.0258,0.026,0.0265,0.0261,0.0261,0.028,0.0256,0.0253,0.025,0.0248,0.0238,0.0236,0.0228,0.0238,0.0238,0.0261,0.022,0.0263,0.0265,0.0267,0.0318,0.0325,0.0331,0,0,0,0,0,0.0257,0.0272,0.0266,0.0267,0.0269,0.0281,0.028,0.0268,0.025,0.026,0.0252,0.0236,0.0253,0.0239,0.0238,0.0262,0.0261,0.0264,0.0267,0.0315,0.0323,0.0331,0,0,0,0,0,0,0.0262,0.027,0.0264,0.0279,0.0283,0.0277,0.0285,0.027,0.027,0.0264,0.0249,0.0248,0.0268,0.0259,0.0243,0.0284,0.0256,0.0259,0.0293,0.0301,0.0307,0.034,0.022,0,0,0,0,0,0.0266,0.0282,0.0284,0.0296,0.0302,0.0291,0.0292,0.0282,0.0281,0.0279,0.0275,0.0273,0.0281,0.0284,0.0289,0.0308,0.0305,0.0325,0.0331,0.0337,0.0364,0.0382,0.0393,0.0278,0.0278,0.0278,0,0,0.027,0.0277,0.0284,0.0298,0.03,0.0324,0.0291,0.0297,0.0315,0.0279,0.0305,0.0295,0.0291,0.0316,0.0325,0.031,0.0363,0.034,0.0345,0.037,0.0386,0.0398,0.0407,0.028,0.028,0.0279,0,0,0.0296,0.0295,0.0322,0.0333,0.0341,0.0341,0.0345,0.0345,0.0345,0.0363,0.0345,0.0356,0.0361,0.0373,0.0376,0.0423,0.0396,0.0414,0.0474,0.049,0.05,0.0509,0.0497,0.0504,0.0417,0.0418,0.0418,0,0.0299,0.0335,0.033,0.0362,0.038,0.0355,0.0391,0.039,0.0392,0.0409,0.0382,0.0417,0.0398,0.0448,0.0456,0.044,0.0432,0.0441,0.0499,0.0508,0.0516,0.0502,0.0509,0.0421,0.042,0.042,0.042,0,0.0351,0.0378,0.0397,0.0435,0.0452,0.0477,0.0482,0.0495,0.0486,0.049,0.0531,0.0516,0.0546,0.053,0.0502,0.0555,0.0523,0.0503,0.0479,0.0531,0.0512,0.0519,0.0425,0.0424,0.0423,0.0422,0,0,0.0368,0.0425,0.0432,0.0471,0.0495,0.0521,0.0554,0.0592,0.0635,0.0624,0.0696,0.068,0.0674,0.0679,0.0651,0.0651,0.0672,0.06,0.0599,0.0588,0.0689,0.0621,0.0621,0.0656,0.0658,0.066,0.0645,0,0.0415,0.0495,0.0506,0.0584,0.0631,0.0631,0.0675,0.0699,0.0718,0.0779,0.0764,0.0816,0.0731,0.0756,0.0744,0.0704,0.0697,0.0677,0.0643,0.0642,0.0575,0.063,0.0619,0.0602,0.0651,0.0652,0.0653,0,0.0466,0.0519,0.0604,0.0684,0.0705,0.0741,0.0825,0.0863,0.092,0.094,0.0978,0.0973,0.0992,0.0914,0.0871,0.086,0.0786,0.0735,0.0733,0.0665,0.0588,0.0563,0.0611,0.0546,0.0663,0.0662,0.0661,0,0.0504,0.0589,0.0665,0.0691,0.0771,0.081,0.0853,0.0913,0.0986,0.1062,0.1132,0.1129,0.1163,0.1081,0.0953,0.0924,0.0893,0.0844,0.0712,0.0705,0.0691,0.0679,0.0678,0.0824,0.0824,0.0824,0.0824,0,0.0558,0.0619,0.069,0.0735,0.0838,0.087,0.0984,0.1025,0.1131,0.1252,0.1229,0.1322,0.1207,0.1168,0.1025,0.0889,0.0948,0.0746,0.0712,0.0704,0.0694,0.063,0.056,0.0823,0.0823,0.0823,0.0823,0,0.0593,0.0634,0.0733,0.0826,0.086,0.0939,0.1074,0.1175,0.1245,0.1413,0.1455,0.1488,0.1429,0.128,0.1153,0.0995,0.0801,0.0792,0.077,0.0735,0.0538,0.0471,0.0421,0.0383,0.0664,0.0663,0.0662,0,0.0621,0.0676,0.0798,0.0871,0.0916,0.1031,0.1129,0.1227,0.1356,0.1517,0.1625,0.1618,0.1627,0.1394,0.1122,0.0872,0.0772,0.0692,0.0636,0.0549,0.045,0.0418,0.0388,0.0628,0.0627,0.0626,0.0625,0,0.0688,0.0726,0.0811,0.095,0.106,0.1198,0.1347,0.1464,0.1609,0.1732,0.1874,0.1885,0.1667,0.1419,0.1064,0.0878,0.0634,0.0657,0.0599,0.0455,0.0394,0.0334,0.0593,0.0614,0.0615,0.0616,0.0616,0.0617,0.0741,0.0808,0.0917,0.1047,0.1182,0.1357,0.1472,0.1643,0.1831,0.2006,0.2012,0.2015,0.1689,0.1205,0.0957,0.0542,0.0543,0.0422,0.0356,0.0339,0.0286,0.05,0.0458,0.0458,0.0459,0.0459,0.0459,0,0.0811,0.0888,0.1013,0.1178,0.1332,0.139,0.1618,0.1739,0.1941,0.2061,0.2126,0.1954,0.1543,0.1143,0.0577,0.0304,0.0231,0.0179,0.0162,0.0152,0.0383,0.0365,0.0264,0.0264,0.0264,0.0264,0.0264,0.0264,0.0858,0.0974,0.1029,0.127,0.1395,0.159,0.1714,0.1881,0.1995,0.2103,0.2089,0.2062,0.1822,0.0855,0.0264,0.0108,-0.0021,-0.009,-0.0135,0.0043,0.0063,0.0081,0.0054,-0.0111,-0.0112,-0.0304,-0.0307,-0.0309]}],[{"header":{"parameterUnit":"m.s-1","parameterCategory":2,"la1":30.2991,"la2":30.254,"lo1":-89.0895,"lo2":-89.0444,"dy":0.0017,"dx":0.0017,"nx":28,"ny":28,"refTime":"2025-07-06T09:00:00:Z","depth":"2","parameterNumber":2,"parameterNumberName":"U-component_of_CURRENTS"},"data":[0,0,0,0,0,0,0,0,0,0,0,0,0,0,0,0,0,0,0,0,0,0,0,0,0,0,0,0,0,0,0,0,0,0,0,0,0,0,0,0,0,0,0,0,0,0,0,0,0,0,0,0,0,0,0,0,0,0,0.2618,0.2618,0,0.2649,0.2649,0.2649,0.2646,0.2646,0.2645,0.2645,0.2704,0.2706,0.2708,0,0,0,0,0,0,0,0,0,0,0,0,0,0.2615,0.2615,0.2618,0.2618,0.2619,0.2649,0.2649,0.2649,0.2646,0.2646,0.2645,0.2644,0.2703,0.2706,0.2708,0,0,0,0,0,0,0,0,0,0,0,0,0,0.2628,0.2615,0.2618,0.2621,0.2622,0.2649,0.2649,0.265,0.2646,0.2645,0.2645,0.2644,0.2702,0.2705,0.2708,0.274,0,0,0.2717,0.2719,0,0,0,0,0,0,0,0,0.2627,0.2628,0.262,0.2621,0.2622,0.2643,0.267,0.2681,0.2646,0.2636,0.2645,0.2644,0.2687,0.2691,0.2697,0.2743,0.2745,0.2718,0.2719,0.2721,0.2722,0,0,0,0,0,0,0,0.2626,0.2627,0.263,0.2621,0.2622,0.2641,0.2642,0.2672,0.2665,0.2637,0.2637,0.2642,0.2688,0.2694,0.2699,0.2746,0.2718,0.272,0.2722,0.2723,0.2843,0.2845,0,0,0,0,0,0,0.2621,0.2626,0.2629,0.2631,0.2623,0.2642,0.2642,0.2637,0.2664,0.2668,0.2642,0.2641,0.269,0.2695,0.2701,0.2795,0.2721,0.2724,0.2725,0.2842,0.2844,0.2845,0,0,0,0,0,0,0.262,0.262,0.2627,0.263,0.2632,0.2642,0.2636,0.2638,0.2663,0.2668,0.2672,0.2668,0.2689,0.2697,0.2748,0.2795,0.2725,0.2728,0.284,0.2842,0.2844,0.2948,0,0,0,0,0,0,0.262,0.262,0.2624,0.2629,0.2632,0.2663,0.2637,0.2639,0.2666,0.2665,0.2691,0.2694,0.2689,0.2744,0.2751,0.2798,0.273,0.2838,0.2841,0.2844,0.2942,0.2953,0.2962,0,0,0,0,0,0.262,0.2632,0.2624,0.2625,0.2633,0.2665,0.267,0.2674,0.2668,0.2692,0.2706,0.2695,0.2765,0.2748,0.2756,0.2805,0.2837,0.284,0.2843,0.2938,0.2951,0.2962,0,0,0,0,0,0,0.2636,0.2633,0.2624,0.2634,0.2656,0.2665,0.269,0.2691,0.2721,0.2722,0.2723,0.2729,0.2791,0.2781,0.2762,0.2843,0.2796,0.2801,0.2865,0.2877,0.2886,0.2911,0.2732,0,0,0,0,0,0.264,0.2645,0.2652,0.2664,0.2678,0.2688,0.2704,0.2706,0.2727,0.2739,0.276,0.2778,0.2808,0.2829,0.2849,0.2904,0.2914,0.2934,0.2944,0.2952,0.2976,0.3041,0.306,0.2855,0.2855,0.2855,0,0,0.2644,0.2649,0.2649,0.2668,0.2684,0.2711,0.2697,0.2729,0.2756,0.2743,0.2802,0.2821,0.2829,0.2886,0.2912,0.2887,0.3012,0.2956,0.2964,0.2983,0.3047,0.3067,0.3085,0.2858,0.2857,0.2857,0,0,0.2665,0.2669,0.2682,0.2708,0.2737,0.2744,0.276,0.2787,0.2809,0.2864,0.2859,0.2914,0.2954,0.2978,0.2991,0.307,0.3063,0.3066,0.3143,0.3206,0.3224,0.3241,0.3267,0.3285,0.307,0.307,0.307,0,0.2676,0.2684,0.2696,0.2728,0.2751,0.2764,0.2792,0.2823,0.2864,0.2903,0.2894,0.2996,0.3002,0.3086,0.3107,0.3098,0.3118,0.31,0.3223,0.3239,0.3254,0.3277,0.3295,0.3075,0.3075,0.3074,0.3074,0,0.2701,0.2721,0.2743,0.2774,0.2806,0.2839,0.2873,0.2914,0.2943,0.2983,0.3086,0.3115,0.3185,0.3186,0.3174,0.3283,0.3256,0.3231,0.3199,0.3281,0.3299,0.3316,0.3083,0.3081,0.3079,0.3078,0,0,0.2689,0.2743,0.2754,0.2778,0.2832,0.2861,0.2919,0.2984,0.3046,0.3114,0.3222,0.3279,0.3328,0.3346,0.3353,0.34,0.3511,0.3367,0.3368,0.3404,0.3638,0.3428,0.3426,0.3514,0.3518,0.3521,0.3604,0,0.2705,0.2754,0.2784,0.2844,0.287,0.2915,0.2975,0.3044,0.3113,0.3228,0.3304,0.3408,0.338,0.3435,0.3492,0.3499,0.3564,0.349,0.3544,0.3545,0.3358,0.3442,0.3181,0.3216,0.3621,0.3624,0.3626,0,0.2712,0.2746,0.2794,0.2874,0.2896,0.2943,0.3046,0.3109,0.3259,0.3326,0.3459,0.3531,0.3644,0.361,0.3706,0.3662,0.368,0.3677,0.368,0.3464,0.3367,0.3201,0.3232,0.3654,0.3652,0.365,0.3648,0,0.2677,0.2756,0.2791,0.2819,0.291,0.2959,0.3024,0.3147,0.3231,0.3417,0.3497,0.3653,0.3726,0.3795,0.3791,0.3774,0.3872,0.3843,0.3681,0.3665,0.3442,0.3398,0.3953,0.3953,0.3953,0.3953,0.3952,0,0.2669,0.2706,0.2785,0.2809,0.2883,0.2962,0.3064,0.3154,0.3322,0.3433,0.3567,0.3656,0.3777,0.3841,0.3854,0.3795,0.3929,0.3716,0.3685,0.3462,0.3422,0.3796,0.3777,0.3956,0.3955,0.3954,0.3954,0,0.2627,0.267,0.2723,0.2824,0.2864,0.2927,0.3079,0.3156,0.3303,0.3455,0.3527,0.369,0.3726,0.3797,0.3879,0.3819,0.3817,0.3775,0.3479,0.3409,0.3562,0.3547,0.3621,0.3615,0.3609,0.3605,0.3601,0,0.26,0.263,0.2723,0.2757,0.281,0.2908,0.2969,0.3137,0.3232,0.3436,0.351,0.3616,0.3624,0.3634,0.3583,0.3561,0.369,0.3295,0.3207,0.3572,0.3536,0.3529,0.3522,0.2966,0.2957,0.295,0.2945,0,0.258,0.2621,0.2658,0.2725,0.2791,0.287,0.2989,0.303,0.3216,0.3283,0.3358,0.338,0.3393,0.3215,0.3181,0.3141,0.3268,0.3141,0.3651,0.3053,0.2951,0.2915,0.2931,0.2881,0.2887,0.2892,0.2895,0.2898,0.2563,0.2577,0.2633,0.2681,0.2747,0.2799,0.2791,0.2882,0.2936,0.298,0.3113,0.3011,0.3038,0.2795,0.2695,0.2622,0.2847,0.2743,0.2769,0.2801,0.2674,0.2563,0.2397,0.24,0.2403,0.2405,0.2408,0,0.2529,0.2545,0.2589,0.2594,0.2602,0.2725,0.2768,0.2689,0.2598,0.2689,0.2671,0.2417,0.2276,0.2306,0.2088,0.2049,0.2074,0.1969,0.2011,0.2074,0.2131,0.1972,0.1508,0.1505,0.1502,0.15,0,0,0.2506,0.2497,0.2492,0.2444,0.2468,0.243,0.242,0.2302,0.2288,0.2128,0.2066,0.2204,0.225,0.1873,0.1805,0.1623,0.1844,0.1551,0.2278,0.2394,0.2448,0.2581,0.2407,0,0,0,0,0]},{"header":{"parameterUnit":"m.s-1","parameterCategory":2,"la1":30.2991,"la2":30.254,"lo1":-89.0895,"lo2":-89.0444,"dy":0.0017,"dx":0.0017,"nx":28,"ny":28,"refTime":"2025-07-06T09:00:00:Z","depth":"2","parameterNumber":3,"parameterNumberName":"V-component_of_CURRENTS"},"data":[0,0,0,0,0,0,0,0,0,0,0,0,0,0,0,0,0,0,0,0,0,0,0,0,0,0,0,0,0,0,0,0,0,0,0,0,0,0,0,0,0,0,0,0,0,0,0,0,0,0,0,0,0,0,0,0,0,0,0.0096,0.0096,0,0.009,0.009,0.009,0.0078,0.0078,0.0077,0.0077,0.0071,0.0071,0.0071,0,0,0,0,0,0,0,0,0,0,0,0,0,0.009,0.0091,0.0096,0.0096,0.0096,0.009,0.009,0.009,0.0078,0.0078,0.0077,0.0077,0.0071,0.0071,0.0071,0,0,0,0,0,0,0,0,0,0,0,0,0,0.0089,0.0091,0.0096,0.009,0.0089,0.009,0.009,0.009,0.0078,0.0078,0.0077,0.0077,0.0071,0.0071,0.0071,0.0077,0,0,0.0071,0.0071,0,0,0,0,0,0,0,0,0.0089,0.0089,0.0091,0.009,0.009,0.0085,0.0086,0.0086,0.0078,0.0082,0.0077,0.0077,0.0077,0.0076,0.0075,0.0077,0.0077,0.0071,0.0071,0.0072,0.0072,0,0,0,0,0,0,0,0.0089,0.0089,0.0093,0.0091,0.009,0.0085,0.0084,0.0086,0.008,0.0081,0.0081,0.0081,0.0076,0.0075,0.0075,0.0077,0.0071,0.0071,0.0072,0.0072,0.0091,0.0092,0,0,0,0,0,0,0.0092,0.0089,0.0093,0.0093,0.0089,0.0085,0.0085,0.0086,0.008,0.0079,0.0081,0.008,0.0075,0.0075,0.0074,0.0106,0.0072,0.0072,0.0072,0.0091,0.0091,0.0092,0,0,0,0,0,0,0.0092,0.0092,0.0094,0.0091,0.0091,0.0086,0.0088,0.0086,0.0087,0.008,0.0079,0.0083,0.0075,0.0074,0.0084,0.0104,0.0072,0.0072,0.009,0.0091,0.0091,0.0152,0,0,0,0,0,0,0.0092,0.0092,0.0097,0.0092,0.0092,0.0107,0.0088,0.0086,0.0087,0.0086,0.0081,0.008,0.0074,0.0084,0.0084,0.0104,0.0072,0.0089,0.009,0.0091,0.015,0.0155,0.016,0,0,0,0,0,0.0091,0.0103,0.0097,0.0098,0.0097,0.0108,0.0108,0.0102,0.0088,0.0099,0.0091,0.0081,0.0089,0.0084,0.0084,0.0105,0.0089,0.009,0.0091,0.0147,0.0154,0.016,0,0,0,0,0,0,0.0102,0.0103,0.0096,0.0107,0.0111,0.0106,0.0116,0.0105,0.0106,0.0102,0.009,0.009,0.0103,0.0093,0.0088,0.0111,0.0086,0.0087,0.0129,0.0135,0.014,0.0166,0.0072,0,0,0,0,0,0.0106,0.0115,0.0115,0.0123,0.0129,0.012,0.0123,0.0116,0.0115,0.0114,0.0113,0.0107,0.0107,0.0113,0.011,0.0128,0.0118,0.0138,0.0143,0.0148,0.0167,0.0169,0.0176,0.0095,0.0095,0.0095,0,0,0.011,0.0113,0.0117,0.0126,0.0128,0.015,0.0122,0.0129,0.0145,0.0114,0.0139,0.0125,0.0114,0.0132,0.0138,0.0129,0.0162,0.0149,0.0153,0.0171,0.0171,0.0179,0.0186,0.0096,0.0096,0.0096,0,0,0.0134,0.013,0.0151,0.0162,0.0169,0.0168,0.0172,0.0173,0.0174,0.019,0.0169,0.0174,0.0175,0.0179,0.0178,0.0209,0.0185,0.0198,0.0253,0.0254,0.0261,0.0267,0.0253,0.0258,0.0205,0.0206,0.0206,0,0.0141,0.0167,0.0159,0.0187,0.0205,0.0181,0.0214,0.0212,0.0215,0.0227,0.0207,0.0222,0.0204,0.0236,0.024,0.0224,0.0211,0.0232,0.0262,0.0268,0.0273,0.0258,0.0262,0.0209,0.0208,0.0208,0.0208,0,0.0186,0.0208,0.0224,0.0254,0.0271,0.0293,0.0295,0.0305,0.0298,0.03,0.0326,0.0307,0.0326,0.0308,0.0282,0.0314,0.0286,0.0265,0.0251,0.0286,0.0266,0.0269,0.0213,0.0212,0.0211,0.021,0,0,0.0204,0.0248,0.0255,0.0289,0.031,0.0334,0.0358,0.0388,0.0423,0.0411,0.047,0.0443,0.0437,0.0435,0.0406,0.0395,0.0403,0.0347,0.0346,0.0341,0.0394,0.0333,0.033,0.0384,0.0385,0.0386,0.0361,0,0.0247,0.0316,0.0324,0.0393,0.0435,0.0431,0.0466,0.0484,0.0497,0.0547,0.0523,0.0565,0.0485,0.0507,0.0483,0.0428,0.0417,0.0412,0.0355,0.0354,0.0302,0.0334,0.0342,0.0317,0.0364,0.0365,0.0365,0,0.0294,0.0339,0.0414,0.0483,0.0502,0.0536,0.0603,0.0635,0.0675,0.069,0.0715,0.0706,0.0704,0.0638,0.0564,0.0561,0.0491,0.0433,0.0431,0.0361,0.03,0.0292,0.0321,0.037,0.037,0.0369,0.0369,0,0.033,0.0405,0.0471,0.0495,0.0562,0.0597,0.0636,0.0681,0.0742,0.0802,0.0859,0.0838,0.0856,0.0764,0.063,0.0607,0.0539,0.0499,0.0379,0.0373,0.0365,0.0356,0.0465,0.0465,0.0465,0.0465,0.0465,0,0.038,0.0434,0.0497,0.0538,0.063,0.0657,0.0757,0.079,0.0878,0.0982,0.0949,0.1017,0.0887,0.0829,0.069,0.0539,0.0587,0.0402,0.0371,0.0382,0.0375,0.041,0.0404,0.0464,0.0464,0.0464,0.0464,0,0.0412,0.0446,0.0536,0.0619,0.0651,0.0724,0.0845,0.0927,0.0985,0.1128,0.1165,0.1163,0.1073,0.0919,0.0772,0.0625,0.0485,0.0422,0.0431,0.04,0.0304,0.0301,0.0301,0.0299,0.0297,0.0295,0.0294,0,0.0436,0.0484,0.0597,0.0664,0.0707,0.0811,0.0891,0.0977,0.1087,0.1216,0.1305,0.1267,0.1238,0.0976,0.0736,0.0498,0.0467,0.0337,0.0293,0.0322,0.0291,0.0292,0.0291,0.0304,0.0302,0.0302,0.0301,0,0.0495,0.053,0.0607,0.0738,0.0837,0.096,0.1091,0.1189,0.1313,0.1397,0.1493,0.1473,0.1251,0.1,0.0671,0.0504,0.0369,0.0308,0.0367,0.0332,0.0319,0.029,0.0291,0.0293,0.0293,0.0294,0.0295,0.0295,0.0542,0.0604,0.0706,0.0829,0.0949,0.1108,0.1209,0.134,0.1484,0.1621,0.1604,0.1547,0.1299,0.0854,0.0582,0.0301,0.0323,0.0203,0.0209,0.0215,0.0207,0.0191,0.0139,0.0139,0.0139,0.0139,0.0139,0,0.0608,0.0679,0.0795,0.0945,0.1082,0.1147,0.1343,0.1422,0.1556,0.1658,0.1683,0.1409,0.1139,0.0853,0.0441,0.0185,0.0179,0.0086,0.0145,0.0155,0.0163,0.0155,0.0071,0.007,0.007,0.0069,0,0,0.0651,0.0758,0.0809,0.103,0.1148,0.1326,0.1439,0.1531,0.161,0.1641,0.1613,0.1562,0.1218,0.0898,0.0563,0.0324,0.0293,0.0263,0.0344,0.0464,0.0475,0.0255,0.0255,0,0,0,0,0]}],[{"header":{"parameterUnit":"m.s-1","parameterCategory":2,"la1":30.2991,"la2":30.254,"lo1":-89.0895,"lo2":-89.0444,"dy":0.0017,"dx":0.0017,"nx":28,"ny":28,"refTime":"2025-07-06T09:00:00:Z","depth":"4","parameterNumber":2,"parameterNumberName":"U-component_of_CURRENTS"},"data":[0,0,0,0,0,0,0,0,0,0,0,0,0,0,0,0,0,0,0,0,0,0,0,0,0,0,0,0,0,0,0,0,0,0,0,0,0,0,0,0,0,0,0,0,0,0,0,0,0,0,0,0,0,0,0,0,0,0,0.1438,0.1439,0,0.1505,0.1505,0.1506,0.1562,0.1563,0.1564,0.1565,0.1613,0.1613,0.1613,0,0,0,0,0,0,0,0,0,0,0,0,0,0.143,0.1429,0.1438,0.1439,0.144,0.1505,0.1505,0.1506,0.1562,0.1563,0.1564,0.1566,0.1613,0.1613,0.1613,0,0,0,0,0,0,0,0,0,0,0,0,0,0.1454,0.1428,0.1437,0.1479,0.1484,0.1505,0.1505,0.1506,0.1562,0.1563,0.1565,0.1566,0.1612,0.1613,0.1613,0.1587,0,0,0.1615,0.1615,0,0,0,0,0,0,0,0,0.1453,0.1454,0.1472,0.1476,0.1481,0.153,0.1521,0.1534,0.1561,0.1528,0.1565,0.1567,0.1585,0.1588,0.1592,0.1589,0.1591,0.1615,0.1615,0.1616,0.1616,0,0,0,0,0,0,0,0.1451,0.1452,0.146,0.1473,0.1479,0.1519,0.1523,0.1523,0.1544,0.1531,0.1536,0.155,0.1587,0.1591,0.1593,0.1592,0.1615,0.1616,0.1616,0.1616,0.1696,0.1698,0,0,0,0,0,0,0.1445,0.145,0.1458,0.1463,0.1475,0.1518,0.1523,0.151,0.1544,0.1552,0.1548,0.1552,0.1589,0.1592,0.1595,0.1673,0.1616,0.1616,0.1616,0.1694,0.1696,0.1698,0,0,0,0,0,0,0.1444,0.1444,0.1455,0.1463,0.1468,0.1517,0.1502,0.151,0.1553,0.1559,0.1566,0.1587,0.1591,0.1594,0.1624,0.1671,0.1616,0.1617,0.1692,0.1695,0.1697,0.176,0,0,0,0,0,0,0.1443,0.1442,0.1457,0.1461,0.1467,0.1487,0.1501,0.1511,0.1559,0.1565,0.1593,0.1597,0.1592,0.1624,0.1625,0.1671,0.1617,0.169,0.1693,0.1696,0.1756,0.1765,0.1772,0,0,0,0,0,0.1442,0.1451,0.1456,0.146,0.1476,0.1488,0.1495,0.1533,0.1559,0.1577,0.16,0.1598,0.1647,0.1625,0.1626,0.1674,0.1688,0.1692,0.1696,0.1752,0.1763,0.1772,0,0,0,0,0,0,0.1463,0.1458,0.1464,0.1474,0.149,0.15,0.1531,0.1552,0.1584,0.1597,0.1606,0.1611,0.1654,0.1654,0.1629,0.1708,0.1673,0.1678,0.1716,0.1726,0.1734,0.1733,0.1618,0,0,0,0,0,0.1469,0.1473,0.1475,0.1488,0.1495,0.1518,0.154,0.1555,0.1575,0.1594,0.1619,0.1645,0.1664,0.1688,0.1693,0.1732,0.1736,0.177,0.1778,0.1785,0.1786,0.1851,0.1865,0.1712,0.1711,0.1711,0,0,0.1484,0.1484,0.1489,0.1495,0.1509,0.1525,0.1535,0.1564,0.1593,0.159,0.1652,0.1664,0.1676,0.1718,0.1741,0.1733,0.1827,0.179,0.1796,0.1793,0.1857,0.1872,0.1885,0.1714,0.1714,0.1713,0,0,0.1499,0.1508,0.1512,0.1522,0.1544,0.1556,0.1572,0.1595,0.1627,0.167,0.168,0.1723,0.1762,0.1782,0.1795,0.1853,0.1857,0.1871,0.1927,0.199,0.2003,0.2015,0.2018,0.203,0.189,0.1891,0.1891,0,0.1524,0.1514,0.1521,0.1527,0.1541,0.1574,0.1581,0.1618,0.1658,0.1682,0.1702,0.1777,0.1792,0.1843,0.1875,0.1873,0.1893,0.1886,0.2001,0.2013,0.2024,0.2025,0.2037,0.1894,0.1894,0.1893,0.1893,0,0.1521,0.1536,0.1542,0.1554,0.1572,0.1586,0.1617,0.1669,0.1719,0.1746,0.1815,0.1844,0.1895,0.1917,0.1918,0.2006,0.1988,0.1992,0.1974,0.2043,0.2039,0.2051,0.1899,0.1898,0.1897,0.1896,0,0,0.151,0.1534,0.1541,0.1549,0.158,0.1589,0.1653,0.1699,0.1751,0.1818,0.1883,0.1941,0.1973,0.199,0.201,0.2075,0.2166,0.2083,0.2085,0.2082,0.228,0.2118,0.2114,0.2208,0.2211,0.2214,0.2238,0,0.1508,0.1518,0.1531,0.1562,0.1564,0.1614,0.1666,0.172,0.1784,0.1863,0.1922,0.1988,0.1998,0.2044,0.2111,0.2162,0.2204,0.2157,0.2217,0.2217,0.2063,0.2124,0.2223,0.2246,0.2249,0.2251,0.2252,0,0.1484,0.1498,0.1512,0.1552,0.1559,0.1599,0.1679,0.173,0.1839,0.1896,0.1983,0.2028,0.2138,0.2138,0.2263,0.2243,0.2264,0.229,0.2292,0.2126,0.2077,0.217,0.2272,0.2271,0.2269,0.2268,0.2267,0,0.1441,0.1479,0.1492,0.1503,0.1562,0.1603,0.1656,0.1747,0.1797,0.1936,0.2005,0.2107,0.2201,0.2265,0.2335,0.2322,0.2449,0.2431,0.2283,0.227,0.2379,0.2367,0.2493,0.2493,0.2493,0.2493,0.2493,0,0.1401,0.1419,0.1488,0.1495,0.1532,0.1586,0.1647,0.1728,0.1842,0.1907,0.203,0.2103,0.2254,0.2336,0.2362,0.236,0.2475,0.229,0.2277,0.24,0.239,0.2385,0.2372,0.2494,0.2494,0.2493,0.2493,0,0.1334,0.1382,0.141,0.1487,0.1508,0.1546,0.1639,0.1685,0.1825,0.1929,0.1987,0.215,0.2262,0.2348,0.2455,0.2388,0.2399,0.2355,0.2459,0.2451,0.2158,0.2148,0.2182,0.2177,0.2172,0.2169,0.2165,0,0.1288,0.1293,0.1384,0.1408,0.1449,0.151,0.1541,0.1667,0.1712,0.193,0.1964,0.2134,0.2223,0.224,0.2334,0.2343,0.2314,0.228,0.2227,0.2148,0.2133,0.213,0.2127,0.2158,0.2157,0.2156,0.2155,0,0.1195,0.1254,0.1287,0.1326,0.1373,0.1406,0.1471,0.1501,0.1659,0.1805,0.1909,0.1976,0.2083,0.2146,0.2174,0.2174,0.2289,0.2232,0.2241,0.2191,0.212,0.2108,0.211,0.2139,0.2142,0.2143,0.2144,0,0.1142,0.1149,0.1197,0.1228,0.1276,0.129,0.1343,0.14,0.1468,0.171,0.1735,0.1922,0.207,0.2056,0.2081,0.2077,0.2033,0.1948,0.1971,0.1989,0.1913,0.1794,0.1707,0,0,0,0,0,0.1078,0.1068,0.1077,0.1118,0.1165,0.1197,0.1274,0.1338,0.1499,0.1527,0.1631,0.172,0.1797,0.1869,0.1824,0.1965,0.2023,0.1898,0.1933,0.2054,0.2072,0.2001,0,0,0,0,0,0,0.1039,0.1045,0.1038,0.1006,0.1025,0.106,0.1121,0.1239,0.1244,0.1429,0.1472,0.1608,0.1693,0.1827,0.18,0.1817,0.1796,0.1995,0.1989,0.2044,0.206,0.2074,0.2008,0,0,0,0,0]},{"header":{"parameterUnit":"m.s-1","parameterCategory":2,"la1":30.2991,"la2":30.254,"lo1":-89.0895,"lo2":-89.0444,"dy":0.0017,"dx":0.0017,"nx":28,"ny":28,"refTime":"2025-07-06T09:00:00:Z","depth":"4","parameterNumber":3,"parameterNumberName":"V-component_of_CURRENTS"},"data":[0,0,0,0,0,0,0,0,0,0,0,0,0,0,0,0,0,0,0,0,0,0,0,0,0,0,0,0,0,0,0,0,0,0,0,0,0,0,0,0,0,0,0,0,0,0,0,0,0,0,0,0,0,0,0,0,0,0,0.0034,0.0034,0,0.0029,0.0029,0.0029,0.0022,0.0022,0.0022,0.0022,0.001,0.001,0.001,0,0,0,0,0,0,0,0,0,0,0,0,0,0.003,0.003,0.0034,0.0034,0.0034,0.0029,0.0029,0.0029,0.0022,0.0022,0.0022,0.0022,0.001,0.001,0.001,0,0,0,0,0,0,0,0,0,0,0,0,0,0.0029,0.003,0.0034,0.003,0.0029,0.0029,0.0029,0.0029,0.0022,0.0022,0.0022,0.0021,0.001,0.001,0.001,0.0012,0,0,0.0009,0.0009,0,0,0,0,0,0,0,0,0.0029,0.0029,0.003,0.003,0.0029,0.0026,0.0023,0.0023,0.0022,0.0025,0.0022,0.0021,0.0015,0.0014,0.0014,0.0011,0.0011,0.0009,0.0009,0.0009,0.0009,0,0,0,0,0,0,0,0.0029,0.0029,0.0032,0.003,0.003,0.0025,0.0025,0.0023,0.0021,0.0025,0.0024,0.0023,0.0015,0.0014,0.0014,0.0011,0.0009,0.0009,0.0009,0.0008,0.001,0.001,0,0,0,0,0,0,0.003,0.003,0.0032,0.0032,0.0029,0.0026,0.0025,0.0027,0.0021,0.002,0.0024,0.0023,0.0015,0.0014,0.0013,0.0027,0.0009,0.0008,0.0008,0.001,0.001,0.001,0,0,0,0,0,0,0.003,0.0031,0.0032,0.003,0.003,0.0026,0.0028,0.0027,0.0026,0.002,0.0019,0.0023,0.0015,0.0014,0.0014,0.0026,0.0008,0.0008,0.0009,0.001,0.001,0.0048,0,0,0,0,0,0,0.003,0.0031,0.0035,0.003,0.003,0.004,0.0028,0.0027,0.0026,0.0025,0.002,0.0018,0.0014,0.0015,0.0014,0.0026,0.0008,0.0009,0.001,0.001,0.0046,0.0049,0.0052,0,0,0,0,0,0.003,0.0039,0.0035,0.0035,0.0035,0.004,0.004,0.0036,0.0026,0.0033,0.0025,0.0018,0.0017,0.0015,0.0014,0.0026,0.0009,0.0009,0.001,0.0045,0.0049,0.0052,0,0,0,0,0,0,0.0038,0.0039,0.0034,0.0042,0.0043,0.0039,0.0045,0.0036,0.0035,0.0031,0.0022,0.0021,0.0024,0.0018,0.0016,0.0026,0.0011,0.0012,0.0038,0.0042,0.0044,0.0054,0.0008,0,0,0,0,0,0.0041,0.0048,0.0047,0.0052,0.0055,0.0048,0.0049,0.0044,0.004,0.0039,0.0035,0.0029,0.0025,0.0028,0.0023,0.0031,0.0012,0.0037,0.004,0.0042,0.0049,0.003,0.0032,0.0012,0.0012,0.0012,0,0,0.0044,0.0046,0.005,0.0055,0.0055,0.0068,0.0049,0.0051,0.0061,0.0038,0.0051,0.0036,0.0028,0.0036,0.0037,0.0034,0.0035,0.0043,0.0045,0.005,0.0031,0.0033,0.0034,0.0012,0.0012,0.0012,0,0,0.006,0.0058,0.0072,0.0077,0.008,0.008,0.0081,0.0078,0.0077,0.0084,0.0067,0.0061,0.0062,0.0059,0.0057,0.0072,0.0047,0.0067,0.0097,0.0079,0.008,0.0082,0.005,0.0048,0.0075,0.0075,0.0075,0,0.0065,0.0084,0.0077,0.0093,0.0106,0.0087,0.011,0.0106,0.0103,0.0107,0.0094,0.0086,0.0076,0.0084,0.0089,0.008,0.0058,0.0087,0.0083,0.0084,0.0085,0.0052,0.0049,0.0077,0.0076,0.0076,0.0076,0,0.0093,0.011,0.012,0.0139,0.015,0.0165,0.0163,0.0167,0.0161,0.0156,0.0156,0.0136,0.0135,0.0126,0.0114,0.0115,0.0093,0.0084,0.0076,0.0089,0.0053,0.005,0.0079,0.0079,0.0078,0.0078,0,0,0.0104,0.0135,0.014,0.0166,0.0178,0.0194,0.0209,0.0225,0.0238,0.022,0.0233,0.0218,0.0197,0.0192,0.0168,0.0151,0.013,0.0123,0.0121,0.0095,0.0076,0.0074,0.007,0.0119,0.0119,0.0119,0.0045,0,0.0133,0.0181,0.0187,0.0237,0.0267,0.0265,0.0286,0.0292,0.0288,0.0292,0.0258,0.0261,0.0225,0.0224,0.0198,0.015,0.0124,0.015,0.0065,0.0062,0.0062,0.0068,0.0119,0.0043,0.0042,0.0041,0.0041,0,0.0162,0.0195,0.0251,0.0303,0.0316,0.0341,0.0379,0.0397,0.0387,0.0381,0.0364,0.0331,0.0304,0.0268,0.0191,0.0207,0.0146,0.01,0.0096,0.0082,0.0055,0.0029,0.0034,0.0035,0.0035,0.0036,0.0036,0,0.0187,0.0242,0.0294,0.0311,0.036,0.0387,0.0415,0.0425,0.0452,0.044,0.0447,0.0395,0.0381,0.0299,0.0202,0.0198,0.0103,0.0087,0.0023,0.0021,0.0027,0.0027,0.0028,0.0028,0.0028,0.0028,0.0029,0,0.022,0.0262,0.0313,0.0343,0.0412,0.0431,0.0494,0.0504,0.0523,0.0558,0.05,0.0499,0.039,0.0319,0.0217,0.0112,0.0116,0.0029,0.0008,0.0042,0.0045,0.0024,0.0024,0.0026,0.0026,0.0027,0.0027,0,0.0238,0.0268,0.0337,0.0401,0.0426,0.0479,0.0556,0.0596,0.0606,0.0645,0.0647,0.0584,0.0497,0.0372,0.0237,0.015,0.0038,-0.0004,0.0036,0.0017,-0.0041,-0.0037,-0.0079,-0.0079,-0.008,-0.008,-0.008,0,0.0253,0.0288,0.0378,0.0428,0.0463,0.0541,0.0593,0.0634,0.067,0.0696,0.0705,0.0643,0.0583,0.0389,0.025,0.0058,0.0028,-0.0039,-0.0036,-0.0032,-0.0049,-0.0045,-0.0041,-0.0081,-0.0081,-0.0081,-0.0081,0,0.0283,0.0313,0.0369,0.0465,0.0536,0.0618,0.0688,0.0721,0.0767,0.0778,0.0762,0.0669,0.0565,0.04,0.0254,0.0112,0.0002,-0.0044,-0.0045,-0.0042,-0.0036,-0.0051,-0.0047,-0.0083,-0.0083,-0.0083,-0.0083,0,0.0304,0.0346,0.0415,0.0504,0.0587,0.0664,0.0709,0.0752,0.0791,0.081,0.0801,0.0695,0.0633,0.0427,0.0288,0.0155,0.0117,0.0063,0.0056,0.0056,0.0116,0.0145,0.014,0,0,0,0,0,0.0326,0.0373,0.045,0.0547,0.0627,0.0679,0.0753,0.0787,0.0824,0.0824,0.0819,0.0722,0.0539,0.0447,0.0316,0.0264,0.0082,0.0102,0.0013,-0.0092,-0.009,-0.0043,0,0,0,0,0,0,0.0344,0.0409,0.0447,0.0555,0.0626,0.0718,0.077,0.0806,0.0793,0.0812,0.071,0.0681,0.049,0.0621,0.0313,0.0272,0.0194,0.0019,0.0015,-0.0093,-0.0091,-0.009,-0.004,0,0,0,0,0]}]]